#timestamp,LO_Frequency,Hit,StdDev 
1618729215.8,286046998.5,N
1618729235.6,286046998.9,N
1618729255.5,286046998.1,N
1618729275.3,286046998.6,N
1618729295.1,286046998.1,N
1618729315.9,286046998.1,N
1618729335.7,286046998.6,N
1618729355.6,286046998.1,N
1618729375.4,286046998.5,N
1618729395.2,286046998.2,N
1618729415.1,286046998.2,N
1618729416.0,286046998.2,N
1618729435.8,286046998.1,N
1618729455.7,286046998.6,N
1618729475.5,286046998.7,N
1618729495.3,286046998.6,N
1618729515.2,286046998.3,N
1618729535.0,286046998.6,N
1618729535.9,286046998.6,N
1618729555.8,286046998.3,N
1618729575.6,286046998.7,N
1618729595.4,286046998.7,N
1618729615.3,286046998.7,N
1618729635.1,286046998.4,N
1618729655.8,286046998.4,N
1618729675.7,286046999.4,N
1618729695.5,286046998.4,N
1618729715.4,286047000.8,N
1618729735.2,286046998.4,Y
1618729755.0,286047000.2,P
1618729755.9,286047000.2,N
1618729775.8,286047002.8,P
1618729795.6,286047002.2,N
1618729815.5,286047002.6,N
1618729835.3,286047002.5,N
1618729855.1,286047002.6,N
1618729875.9,286047002.8,N
1618729895.7,286047000.0,N
1618729915.5,286047002.4,N
1618729935.4,286047002.4,N
1618729955.2,286046999.9,N
1618729975.1,286047002.6,N
1618729976.0,286047002.6,N
1618729995.8,286047002.6,N
1618730015.6,286047002.5,N
1618730035.5,286047002.4,N
1618730055.3,286047002.4,N
1618730075.2,286047002.4,N
1618730095.9,286047002.8,N
1618730115.7,286047002.8,N
1618730135.6,286047000.2,N
1618730155.4,286046999.9,N
1618730175.2,286047000.2,N
1618730195.1,286046999.9,N
1618730196.0,286046999.9,N
1618730215.8,286047000.0,N
1618730235.7,286047000.2,N
1618730255.5,286046999.9,N
1618730275.3,286047000.2,N
1618730295.2,286047000.1,N
1618730315.0,286047002.8,N
1618730315.9,286047002.8,N
1618730335.8,286047002.8,N
1618730355.6,286047002.3,N
1618730375.4,286047000.1,N
1618730395.3,286047000.1,N
1618730415.1,286047002.7,N
1618730435.8,286047002.3,N
1618730455.7,286047002.6,N
1618730475.5,286047002.6,N
1618730495.4,286046999.7,N
1618730515.2,286047000.3,N
1618730535.0,286047000.5,N
1618730535.9,286047000.5,N
1618730555.8,286047000.5,N
1618730575.6,286047000.3,N
1618730595.4,286047000.5,N
1618730615.3,286047000.6,N
1618730635.1,286047000.6,N
1618730655.9,286047000.5,N
1618730675.7,286047000.0,N
1618730695.5,286047000.9,N
1618730715.4,286047000.4,N
1618730735.2,286047000.4,N
1618730755.0,286047000.4,N
1618730755.9,286047000.4,N
1618730775.8,286047000.0,N
1618730795.6,286047000.0,N
1618730815.5,286046999.9,N
1618730835.3,286047000.6,N
1618730855.1,286047000.0,N
1618730875.9,286047000.1,N
1618730895.7,286047002.4,N
1618730915.5,286047002.5,N
1618730935.4,286047002.0,N
1618730955.2,286047001.9,N
1618730975.1,286047001.5,N
1618730976.0,286047001.5,N
1618730995.8,286047001.9,N
1618731015.6,286047002.0,N
1618731035.5,286047002.2,N
1618731055.3,286047002.2,N
1618731075.2,286047002.7,Y
1618731095.9,286047000.5,P
1618731115.7,286047000.0,N
1618731135.6,286047000.3,N
1618731155.4,286047000.3,N
1618731175.2,286047000.5,N
1618731195.1,286047000.8,N
1618731196.0,286047000.8,N
1618731215.8,286047000.7,N
1618731235.7,286047000.6,N
1618731255.5,286047000.5,N
1618731275.3,286047001.0,Y
1618731295.2,286046998.2,P
1618731315.0,286046998.2,N
1618731315.9,286046998.2,N
1618731335.8,286046998.6,N
1618731355.6,286047001.1,N
1618731375.4,286046998.9,N
1618731395.3,286046998.6,N
1618731415.1,286046998.2,N
1618731435.9,286047000.3,N
1618731455.7,286047000.8,N
1618731475.5,286047001.1,N
1618731495.4,286046998.4,N
1618731515.2,286047000.3,N
1618731535.0,286047000.9,N
1618731535.9,286047000.9,N
1618731555.8,286047000.9,N
1618731575.6,286047000.9,N
1618731595.5,286047000.7,N
1618731615.3,286046998.1,N
1618731635.1,286047001.0,N
1618731655.9,286047000.8,N
1618731675.7,286047000.7,N
1618731695.5,286047000.8,N
1618731715.4,286046998.5,N
1618731735.2,286046998.3,N
1618731755.1,286046998.6,N
1618731756.0,286046998.6,N
1618731775.8,286046998.6,N
1618731795.6,286047001.1,N
1618731815.5,286046998.5,N
1618731835.3,286047001.2,N
1618731855.2,286047000.8,N
1618731875.9,286046998.1,N
1618731895.7,286046998.3,N
1618731915.6,286046998.5,N
1618731935.4,286046998.6,N
1618731955.2,286046998.9,N
1618731975.1,286046998.5,N
1618731976.0,286046998.5,N
1618731995.8,286046998.1,N
1618732015.7,286046998.3,N
1618732035.5,286046998.4,N
1618732055.3,286046998.6,N
1618732075.2,286046998.3,N
1618732095.0,286046998.6,N
1618732095.9,286046998.6,N
1618732115.8,286046998.3,N
1618732135.6,286046998.4,N
1618732155.4,286046998.9,N
1618732175.3,286046999.2,N
1618732195.1,286046996.5,Y
1618732215.8,286046998.1,P
1618732235.7,286047000.8,N
1618732255.5,286046998.6,N
1618732275.4,286046998.5,N
1618732295.2,286047001.0,N
1618732315.0,286047001.2,N
1618732315.9,286047001.2,N
1618732335.8,286047001.0,N
1618732355.6,286047000.3,N
1618732375.5,286047000.2,N
1618732395.3,286047000.3,N
1618732415.1,286047000.4,N
1618732435.9,286047000.0,N
1618732455.7,286047000.9,N
1618732475.5,286047000.8,N
1618732495.4,286047000.7,N
1618732515.2,286046998.6,N
1618732535.1,286046998.2,N
1618732536.0,286046998.2,N
1618732555.8,286047001.2,N
1618732575.6,286047000.5,N
1618732595.5,286047000.3,N
1618732615.3,286047000.6,N
1618732635.1,286047000.4,N
1618732655.9,286047000.6,N
1618732675.7,286046999.9,N
1618732695.6,286047000.3,N
1618732715.4,286047000.4,N
1618732735.2,286047000.6,N
1618732755.1,286047001.1,N
1618732756.0,286047001.1,N
1618732775.8,286047000.3,N
1618732795.7,286047000.4,N
